Flight Track Log - Related Links

Times and Time Zones

All times are in EDT time to prevent confusion due to time zone crossing. See the USC110 flight status page for this flight to view local times or setup timezone preferences in your user account.

Time Position Orientation Groundspeed Altitude Reporting Facility
EDT Latitude Longitude Course Direction KTS MPH feet Rate Location/Type
Sat 12:24:53 AM 42.2400 -83.5703 262° West 82 94 2,300  Level Cleveland Center
Sat 12:26:00 AM 42.2246 -83.6266 250° West  Level FlightAware Approximate
Sat 12:27:00 AM 42.2011 -83.6217 250° West 105 121 4,000  Level Cleveland Center
Sat 12:27:55 AM 42.1878 -83.6575 243° Southwest 120 138 4,000  Level Cleveland Center
Sat 12:28:56 AM 42.1700 -83.6931 236° Southwest 121 139 4,000  Level Cleveland Center
Sat 12:29:57 AM 42.1522 -83.7342 240° Southwest 121 139 4,000  Level Cleveland Center
Sat 12:30:57 AM 42.1367 -83.7697 239° Southwest 120 138 4,000  Level Cleveland Center
Sat 12:31:58 AM 42.1167 -83.8108 237° Southwest 119 137 4,000  Level Cleveland Center
Sat 12:33:05 AM 42.0969 -83.8492 235° Southwest 120 138 4,000  Level Cleveland Center
Sat 12:35:00 AM 42.1091 -83.9488 279° West  Level FlightAware Approximate
Sat 12:42:00 AM 42.0981 -84.3173 255° West  Level Estimated
Sat 12:43:00 AM 42.0883 -84.3683 256° West  Level FlightAware Approximate
Sat 12:43:12 AM 41.9261 -84.2169 251° West 112 129 4,000  Level Chicago Center
Sat 12:44:00 AM 42.0785 -84.4193 255° West  Level FlightAware Approximate
Sat 12:44:12 AM 41.9222 -84.2619 263° West 115 132 4,000  Level Chicago Center
Sat 12:45:00 AM 42.0687 -84.4703 255° West  Level FlightAware Approximate
Sat 12:45:13 AM 41.8967 -84.2983 227° Southwest 122 140 4,000  Level Chicago Center
Sat 12:46:00 AM 42.0588 -84.5212 255° West  Level FlightAware Approximate
Sat 12:46:14 AM 41.8706 -84.3344 226° Southwest 130 150 4,000  Level Chicago Center
Sat 12:47:00 AM 42.0575 -84.5739 257° West  Level Estimated
Sat 12:47:15 AM 41.8558 -84.3775 245° Southwest 130 150 4,000  Level Chicago Center
Sat 12:48:00 AM 42.0446 -84.6236 251° West  Level FlightAware Approximate
Sat 12:48:16 AM 41.8422 -84.4211 247° West 128 147 4,000  Level Chicago Center
Sat 12:49:17 AM 41.8369 -84.4669 261° West 126 145 4,000  Level Chicago Center
Sat 12:50:17 AM 41.8356 -84.5139 268° West 125 144 4,000  Level Chicago Center
Sat 12:51:18 AM 41.8317 -84.5600 264° West 125 144 4,000  Level Chicago Center
Sat 12:52:19 AM 41.8250 -84.6133 260° West 124 143 4,000  Level Chicago Center
Sat 12:53:20 AM 41.8203 -84.6594 262° West 124 143 4,000  Level Chicago Center
Sat 12:54:21 AM 41.8164 -84.7044 263° West 123 142 4,000  Level Chicago Center
Sat 12:55:21 AM 41.8119 -84.7497 263° West 123 142 4,000  Level Chicago Center
Sat 12:56:22 AM 41.8072 -84.7947 262° West 122 140 4,000  Level Chicago Center
Sat 12:57:23 AM 41.8028 -84.8403 263° West 123 142 4,000  Level Chicago Center
Sat 12:58:24 AM 41.7986 -84.8861 263° West 124 143 4,000  Level Chicago Center
Sat 12:59:25 AM 41.7944 -84.9311 263° West 123 142 4,000  Level Chicago Center
Sat 01:00:26 AM 41.7900 -84.9767 263° West 123 142 4,000  Level Chicago Center
Sat 01:01:27 AM 41.7856 -85.0208 262° West 122 140 4,000  Level Chicago Center
Sat 01:02:27 AM 41.7814 -85.0650 263° West 121 139 4,000  Level Chicago Center
Sat 01:03:28 AM 41.7769 -85.1100 262° West 121 139 4,000  Level Chicago Center
Sat 01:04:29 AM 41.7725 -85.1542 262° West 121 139 4,000  Level Chicago Center
Sat 01:05:29 AM 41.7681 -85.1992 262° West 121 139 4,000  Level Chicago Center
Sat 01:06:30 AM 41.7628 -85.2533 263° West 122 140 4,000  Level Chicago Center
Sat 01:07:31 AM 41.7578 -85.2978 261° West 121 139 4,000  Level Chicago Center
Sat 01:08:32 AM 41.7531 -85.3422 262° West 121 139 4,000  Level Chicago Center
Sat 01:09:32 AM 41.7494 -85.3867 264° West 122 140 4,000  Level Chicago Center
Sat 01:10:33 AM 41.7450 -85.4317 262° West 123 142 4,000  Level Chicago Center
Sat 01:11:34 AM 41.7400 -85.4769 262° West 123 142 4,000  Level Chicago Center
Sat 01:12:34 AM 41.7347 -85.5214 261° West 123 142 4,000  Level Chicago Center
Sat 01:13:35 AM 41.7300 -85.5661 262° West 122 140 4,000  Level Chicago Center
Sat 01:14:36 AM 41.7253 -85.6108 262° West 123 142 4,000  Level Chicago Center
Sat 01:15:36 AM 41.7206 -85.6556 262° West 122 140 4,000  Level Chicago Center
Sat 01:16:37 AM 41.7164 -85.7003 263° West 121 139 4,000  Level Chicago Center
Sat 01:17:38 AM 41.7119 -85.7447 262° West 121 139 4,000  Level Chicago Center
Sat 01:18:38 AM 41.7022 -85.8003 257° West 126 145 4,000  Level Chicago Center
Sat 01:19:39 AM 41.6878 -85.8447 246° West 130 150 4,000  Level Chicago Center
Sat 01:20:39 AM 41.6678 -85.8847 236° Southwest 129 148 4,000  Level Chicago Center
Sat 01:21:40 AM 41.6486 -85.9219 235° Southwest 126 145 4,000  Level Chicago Center
Sat 01:22:40 AM 41.6319 -85.9614 241° Southwest 124 143 4,000  Level Chicago Center
Sat 01:23:41 AM 41.6217 -86.0025 252° West 119 137 4,000  Level Chicago Center
Sat 01:24:41 AM 41.6192 -86.0506 266° West 126 145 4,000  Level Chicago Center
Sat 01:25:42 AM 41.6172 -86.0947 267° West 123 142 4,000  Level Chicago Center
Sat 01:26:42 AM 41.6128 -86.1400 263° West 123 142 4,000  Level Chicago Center
Sat 01:27:43 AM 41.6083 -86.1856 263° West 123 142 4,000  Level Chicago Center
Sat 01:28:43 AM 41.6072 -86.2317 268° West 125 144 4,000  Level Chicago Center
Sat 01:29:44 AM 41.6039 -86.2775 264° West 125 144 4,000  Level Chicago Center
Sat 01:30:44 AM 41.5992 -86.3231 262° West 124 143 4,000  Level Chicago Center
Sat 01:31:45 AM 41.5958 -86.3689 264° West 126 145 4,000  Level Chicago Center
Sat 01:32:45 AM 41.5942 -86.4153 267° West 126 145 4,000  Level Chicago Center
Sat 01:33:45 AM 41.5900 -86.4622 263° West 127 146 4,000  Level Chicago Center
Sat 01:34:46 AM 41.5861 -86.5081 264° West 126 145 4,000  Level Chicago Center
Sat 01:35:46 AM 41.5836 -86.5544 266° West 125 144 4,000  Level Chicago Center
Sat 01:36:46 AM 41.5817 -86.5992 267° West 123 142 4,000  Level Chicago Center
Sat 01:37:47 AM 41.5781 -86.6447 264° West 123 142 4,000  Level Chicago Center
Sat 01:38:47 AM 41.5756 -86.6903 266° West 124 143 4,000  Level Chicago Center
Sat 01:39:47 AM 41.5703 -86.7431 262° West 122 140 4,000  Level Chicago Center
Sat 01:40:48 AM 41.5664 -86.7878 263° West 122 140 4,000  Level Chicago Center
Sat 01:41:48 AM 41.5642 -86.8339 266° West 122 140 4,000  Level Chicago Center
Sat 01:42:48 AM 41.5625 -86.8789 267° West 122 140 4,000  Level Chicago Center
Sat 01:43:49 AM 41.5581 -86.9233 262° West 122 140 4,000  Level Chicago Center
Sat 01:44:49 AM 41.5542 -86.9700 264° West 125 144 4,000  Level Chicago Center
Sat 01:45:49 AM 41.5508 -87.0164 265° West 126 145 4,000  Level Chicago Center
Sat 01:46:50 AM 41.5483 -87.0614 266° West 124 143 4,000  Level Chicago Center
Sat 01:47:50 AM 41.5436 -87.1086 262° West 127 146 4,000  Level Chicago Center
Sat 01:48:50 AM 41.5394 -87.1553 263° West 128 147 4,000  Level Chicago Center
Sat 01:49:50 AM 41.5358 -87.2022 264° West 128 147 4,000  Level Chicago Center
Sat 01:50:51 AM 41.5333 -87.2481 266° West 127 146 4,000  Level Chicago Center
Sat 01:51:51 AM 41.5294 -87.2947 264° West 127 146 4,000  Level Chicago Center
Sat 01:52:51 AM 41.5353 -87.3397 280° West 130 150 4,000  Level Chicago Center
Sat 01:53:51 AM 41.5533 -87.3819 300° West 131 151 4,000  Level Chicago Center
Sat 01:54:51 AM 41.5739 -87.4247 303° West 135 155 4,000  Level Chicago Center
Sat 01:55:52 AM 41.5919 -87.4686 299° West 136 157 4,000  Level Chicago Center
Sat 01:56:52 AM 41.6094 -87.5139 297° West 137 158 4,000  Level Chicago Center
Sat 01:57:52 AM 41.6275 -87.5564 300° West 136 157 4,000  Level Chicago Center
Sat 01:58:52 AM 41.6483 -87.6108 297° West 136 157 4,000  Level Chicago Center
Sat 01:59:53 AM 41.6669 -87.6550 299° West 138 159 4,000  Level Chicago Center
Sat 02:01:01 AM 41.6844 -87.7011 297° West 138 159 4,000  Level Chicago Center
Sat 02:02:01 AM 41.7025 -87.7467 298° West 139 160 4,000  Level Chicago Center
Sat 02:03:02 AM 41.7217 -87.7922 299° West 140 161 4,000  Level Chicago Center
Sat 02:04:02 AM 41.7386 -87.8386 296° West 141 162 4,000  Level Chicago Center
Sat 02:05:02 AM 41.7614 -87.8936 299° West 141 162 4,000 -150 Level Chicago Center
Sat 02:06:02 AM 41.7811 -87.9408 299° West 143 165 3,700 -350 Descending Chicago Center
Sat 02:07:02 AM 41.8022 -87.9906 300° West 149 171 3,300 -400 Descending Chicago Center
Sat 02:08:02 AM 41.8217 -88.0417 297° West 153 176 2,900 -446 Descending Chicago Center
Sat 02:09:03 AM 41.8375 -88.0956 292° West 155 178 2,400 -397 Descending Chicago Center
Sat 02:10:03 AM 41.8531 -88.1489 291° West 155 178 2,100 -300 Descending Chicago Center
Sat 02:11:03 AM 41.8669 -88.2003 290° West 153 176 1,800 -300 Descending Chicago Center
Sat 02:12:03 AM 41.8803 -88.2414 294° West 139 160 1,500 -298 Descending Chicago Center
Sat 02:13:04 AM 41.8903 -88.2742 292° West 129 148 1,200 -295 Descending Chicago Center
Sat 02:15:00 AM 41.9000 -88.2333 304° West  Level FlightAware Approximate
Sat 02:22:00 AM 41.9071 -88.2480 304° West  Level Estimated

Login

Don't have an account? Register now (free) for customized features, flight alerts, and more!